Station Historical Data
Daily Summary for October 4, 2017 Units:  English    Metric   Both
« Previous Day
Next Day »
Daily Weekly Monthly Yearly Custom
  High: Low: Average:
Temperature: 78.6 °F 56.1 °F 66.5 °F
Dew Point: 58.9 °F 51.9 °F 55.5 °F
Humidity: 87% 47% 69%
Wind Speed: 13.0mph 0.0mph 4.8mph
Wind Gust: 23.0mph - -
Wind- - ENE
Pressure: 30.45 in 30.30 in -
Precipitation: 0.00 in    
Historical Graphs
 
 
Tabular Data for October 4, 2017
Time Temperature Dew Point Pressure Wind Wind Speed Wind Gust Humidity Rainfall Rate (Hourly) Conditions
00:00 64.6 °F 54.6 °F 30.45 in East 5.0 mph 5.0 mph 70% 0.00 in CLR
00:05 64.6 °F 54.6 °F 30.45 in East 5.0 mph 5.0 mph 70% 0.00 in CLR
00:10 64.6 °F 54.6 °F 30.44 in East 5.0 mph 5.0 mph 70% 0.00 in CLR
00:15 64.6 °F 54.2 °F 30.44 in East 3.0 mph 5.0 mph 69% 0.00 in CLR
00:20 64.4 °F 54.4 °F 30.45 in East 3.0 mph 3.0 mph 70% 0.00 in CLR
00:25 64.2 °F 54.6 °F 30.45 in East 3.0 mph 3.0 mph 71% 0.00 in CLR
00:30 64.0 °F 54.4 °F 30.45 in East 3.0 mph 3.0 mph 71% 0.00 in CLR
00:35 63.8 °F 54.2 °F 30.45 in East 3.0 mph 3.0 mph 71% 0.00 in CLR
00:40 63.6 °F 54.0 °F 30.45 in East 3.0 mph 3.0 mph 71% 0.00 in CLR
00:50 63.3 °F 54.1 °F 30.44 in East 3.0 mph 3.0 mph 72% 0.00 in CLR
00:55 63.1 °F 53.9 °F 30.44 in East 3.0 mph 3.0 mph 72% 0.00 in CLR
01:00 62.9 °F 54.2 °F 30.44 in East 3.0 mph 3.0 mph 73% 0.00 in CLR
01:05 62.8 °F 54.0 °F 30.44 in East 3.0 mph 3.0 mph 73% 0.00 in CLR
01:10 62.6 °F 53.8 °F 30.44 in East 3.0 mph 3.0 mph 73% 0.00 in CLR
01:15 62.6 °F 53.8 °F 30.44 in ENE 6.0 mph 6.0 mph 73% 0.00 in CLR
01:20 62.9 °F 53.8 °F 30.44 in ENE 6.0 mph 6.0 mph 72% 0.00 in CLR
01:25 63.1 °F 53.5 °F 30.44 in ENE 6.0 mph 6.0 mph 71% 0.00 in CLR
01:30 63.1 °F 53.5 °F 30.44 in ENE 6.0 mph 6.0 mph 71% 0.00 in CLR
01:40 62.8 °F 53.6 °F 30.44 in ENE 6.0 mph 6.0 mph 72% 0.00 in CLR
01:45 62.6 °F 53.4 °F 30.44 in ENE 6.0 mph 6.0 mph 72% 0.00 in CLR
01:50 62.7 °F 53.9 °F 30.44 in ENE 6.0 mph 6.0 mph 73% 0.00 in CLR
01:55 62.6 °F 53.8 °F 30.44 in ENE 6.0 mph 6.0 mph 73% 0.00 in CLR
02:00 62.4 °F 53.6 °F 30.44 in ENE 6.0 mph 6.0 mph 73% 0.00 in CLR
02:05 62.2 °F 53.4 °F 30.44 in ENE 6.0 mph 6.0 mph 73% 0.00 in CLR
02:10 62.0 °F 53.6 °F 30.44 in ENE 6.0 mph 6.0 mph 74% 0.00 in CLR
02:15 61.8 °F 53.8 °F 30.44 in ENE 3.0 mph 6.0 mph 75% 0.00 in CLR
02:20 61.6 °F 53.6 °F 30.44 in ENE 3.0 mph 3.0 mph 75% 0.00 in CLR
02:25 61.4 °F 53.4 °F 30.44 in ENE 3.0 mph 3.0 mph 75% 0.00 in CLR
02:30 61.3 °F 53.7 °F 30.44 in ENE 3.0 mph 3.0 mph 76% 0.00 in CLR
02:35 61.1 °F 53.5 °F 30.44 in ENE 3.0 mph 3.0 mph 76% 0.00 in CLR
02:40 61.1 °F 53.5 °F 30.44 in ENE 3.0 mph 3.0 mph 76% 0.00 in CLR
02:45 61.0 °F 53.7 °F 30.44 in ENE 3.0 mph 3.0 mph 77% 0.00 in CLR
02:50 60.8 °F 53.6 °F 30.44 in ENE 3.0 mph 3.0 mph 77% 0.00 in CLR
02:55 60.8 °F 53.5 °F 30.43 in ENE 3.0 mph 3.0 mph 77% 0.00 in CLR
03:00 61.0 °F 53.4 °F 30.43 in ENE 3.0 mph 3.0 mph 76% 0.00 in CLR
03:05 61.1 °F 53.5 °F 30.43 in ENE 3.0 mph 3.0 mph 76% 0.00 in CLR
03:10 61.2 °F 53.5 °F 30.43 in ENE 3.0 mph 3.0 mph 76% 0.00 in CLR
03:15 61.0 °F 53.4 °F 30.43 in East 3.0 mph 3.0 mph 76% 0.00 in CLR
03:20 60.9 °F 53.3 °F 30.43 in East 3.0 mph 3.0 mph 76% 0.00 in CLR
03:25 60.8 °F 53.2 °F 30.43 in East 3.0 mph 3.0 mph 76% 0.00 in CLR
03:30 60.8 °F 53.2 °F 30.43 in East 3.0 mph 3.0 mph 76% 0.00 in CLR
03:40 61.1 °F 53.5 °F 30.43 in East 3.0 mph 3.0 mph 76% 0.00 in CLR
03:45 61.0 °F 53.4 °F 30.43 in East 3.0 mph 3.0 mph 76% 0.00 in CLR
03:50 60.9 °F 53.6 °F 30.43 in East 3.0 mph 3.0 mph 77% 0.00 in CLR
03:55 60.8 °F 53.5 °F 30.42 in East 3.0 mph 3.0 mph 77% 0.00 in CLR
04:00 60.6 °F 53.4 °F 30.43 in East 3.0 mph 3.0 mph 77% 0.00 in CLR
04:05 60.5 °F 53.3 °F 30.42 in East 3.0 mph 3.0 mph 77% 0.00 in CLR
04:10 60.5 °F 53.3 °F 30.42 in East 3.0 mph 3.0 mph 77% 0.00 in CLR
04:15 60.4 °F 52.8 °F 30.43 in ENE 2.0 mph 3.0 mph 76% 0.00 in FEW
04:20 60.4 °F 52.8 °F 30.42 in NE 2.0 mph 2.0 mph 76% 0.00 in FEW
04:25 60.3 °F 52.7 °F 30.42 in NE 2.0 mph 2.0 mph 76% 0.00 in FEW
04:30 60.3 °F 53.1 °F 30.42 in NE 2.0 mph 2.0 mph 77% 0.00 in FEW
04:35 60.1 °F 52.9 °F 30.42 in NE 2.0 mph 2.0 mph 77% 0.00 in FEW
04:40 60.0 °F 52.8 °F 30.42 in NE 2.0 mph 2.0 mph 77% 0.00 in FEW
04:45 59.9 °F 53.0 °F 30.42 in NE 2.0 mph 2.0 mph 78% 0.00 in FEW
04:50 59.7 °F 53.2 °F 30.42 in NE 2.0 mph 2.0 mph 79% 0.00 in FEW
04:55 59.6 °F 52.7 °F 30.43 in NE 2.0 mph 2.0 mph 78% 0.00 in FEW
05:00 59.4 °F 52.9 °F 30.43 in NE 2.0 mph 2.0 mph 79% 0.00 in FEW
05:10 59.2 °F 52.7 °F 30.43 in NE 2.0 mph 2.0 mph 79% 0.00 in FEW
05:15 59.1 °F 52.6 °F 30.43 in ENE 2.0 mph 2.0 mph 79% 0.00 in FEW
05:20 59.0 °F 52.8 °F 30.43 in ENE 2.0 mph 2.0 mph 80% 0.00 in FEW
05:25 58.7 °F 52.9 °F 30.43 in ENE 2.0 mph 2.0 mph 81% 0.00 in FEW
05:30 58.5 °F 52.7 °F 30.43 in ENE 2.0 mph 2.0 mph 81% 0.00 in FEW
05:40 58.2 °F 52.4 °F 30.43 in ENE 2.0 mph 2.0 mph 81% 0.00 in FEW
05:45 58.2 °F 52.7 °F 30.43 in ENE 2.0 mph 2.0 mph 82% 0.00 in FEW
05:50 58.1 °F 52.6 °F 30.43 in ENE 2.0 mph 2.0 mph 82% 0.00 in FEW
05:55 57.8 °F 52.7 °F 30.43 in ENE 2.0 mph 2.0 mph 83% 0.00 in FEW
06:00 57.7 °F 52.6 °F 30.43 in ENE 2.0 mph 2.0 mph 83% 0.00 in FEW
06:05 57.6 °F 52.5 °F 30.43 in ENE 2.0 mph 2.0 mph 83% 0.00 in FEW
06:10 57.6 °F 52.8 °F 30.43 in ENE 2.0 mph 2.0 mph 84% 0.00 in FEW
06:15 57.4 °F 52.6 °F 30.43 in ENE 2.0 mph 2.0 mph 84% 0.00 in FEW
06:20 57.3 °F 52.5 °F 30.43 in ENE 2.0 mph 2.0 mph 84% 0.00 in FEW
06:25 57.2 °F 52.7 °F 30.43 in ENE 2.0 mph 2.0 mph 85% 0.00 in FEW
06:30 57.1 °F 52.6 °F 30.43 in ENE 2.0 mph 2.0 mph 85% 0.00 in FEW
06:35 56.9 °F 52.4 °F 30.43 in ENE 2.0 mph 2.0 mph 85% 0.00 in FEW
06:40 56.8 °F 52.3 °F 30.43 in ENE 2.0 mph 2.0 mph 85% 0.00 in FEW
06:50 56.7 °F 52.6 °F 30.43 in ENE 2.0 mph 2.0 mph 86% 0.00 in FEW
06:55 56.6 °F 52.1 °F 30.43 in ENE 2.0 mph 2.0 mph 85% 0.00 in FEW
07:00 56.6 °F 52.4 °F 30.43 in ENE 2.0 mph 2.0 mph 86% 0.00 in FEW
07:05 56.5 °F 52.4 °F 30.43 in ENE 2.0 mph 2.0 mph 86% 0.00 in FEW
07:10 56.5 °F 52.4 °F 30.43 in ENE 2.0 mph 2.0 mph 86% 0.00 in FEW
07:15 56.5 °F 52.0 °F 30.43 in ENE 3.0 mph 3.0 mph 85% 0.00 in CLR
07:20 56.4 °F 52.3 °F 30.43 in East 3.0 mph 3.0 mph 86% 0.00 in CLR
07:25 56.4 °F 51.9 °F 30.43 in East 3.0 mph 3.0 mph 85% 0.00 in CLR
07:30 56.3 °F 52.2 °F 30.43 in East 3.0 mph 3.0 mph 86% 0.00 in CLR
07:35 56.3 °F 52.2 °F 30.43 in East 3.0 mph 3.0 mph 86% 0.00 in CLR
07:40 56.2 °F 52.1 °F 30.43 in East 3.0 mph 3.0 mph 86% 0.00 in CLR
07:45 56.2 °F 52.1 °F 30.43 in East 3.0 mph 3.0 mph 86% 0.00 in CLR
07:50 56.1 °F 52.0 °F 30.43 in East 3.0 mph 3.0 mph 86% 0.00 in CLR
07:55 56.1 °F 52.3 °F 30.43 in East 3.0 mph 3.0 mph 87% 0.00 in CLR
08:00 56.1 °F 52.3 °F 30.43 in East 3.0 mph 3.0 mph 87% 0.00 in CLR
08:05 56.1 °F 52.0 °F 30.44 in East 3.0 mph 3.0 mph 86% 0.00 in CLR
08:10 56.3 °F 52.2 °F 30.44 in East 3.0 mph 3.0 mph 86% 0.00 in CLR
08:15 56.5 °F 52.4 °F 30.44 in ENE 1.0 mph 3.0 mph 86% 0.00 in CLR
08:20 56.8 °F 52.6 °F 30.44 in ENE 1.0 mph 1.0 mph 86% 0.00 in CLR
08:25 57.1 °F 53.0 °F 30.44 in ENE 1.0 mph 1.0 mph 86% 0.00 in CLR
08:30 57.5 °F 53.0 °F 30.44 in ENE 1.0 mph 1.0 mph 85% 0.00 in CLR
08:35 57.9 °F 53.4 °F 30.44 in ENE 1.0 mph 1.0 mph 85% 0.00 in CLR
08:40 58.3 °F 53.5 °F 30.44 in ENE 1.0 mph 1.0 mph 84% 0.00 in CLR
08:45 58.9 °F 53.5 °F 30.44 in ENE 1.0 mph 1.0 mph 82% 0.00 in CLR
08:50 59.7 °F 53.5 °F 30.44 in ENE 1.0 mph 1.0 mph 80% 0.00 in CLR
08:55 60.3 °F 53.7 °F 30.44 in ENE 1.0 mph 1.0 mph 79% 0.00 in CLR
09:00 60.8 °F 53.9 °F 30.45 in ENE 1.0 mph 1.0 mph 78% 0.00 in CLR
09:05 61.3 °F 54.1 °F 30.44 in ENE 1.0 mph 1.0 mph 77% 0.00 in CLR
09:10 61.8 °F 54.1 °F 30.44 in ENE 1.0 mph 1.0 mph 76% 0.00 in CLR
09:15 62.3 °F 54.6 °F 30.44 in ENE 5.0 mph 5.0 mph 76% 0.00 in FEW
09:20 62.7 °F 54.7 °F 30.44 in East 5.0 mph 5.0 mph 75% 0.00 in FEW
09:25 63.2 °F 55.1 °F 30.44 in East 5.0 mph 5.0 mph 75% 0.00 in FEW
09:30 63.5 °F 55.5 °F 30.44 in East 5.0 mph 5.0 mph 75% 0.00 in FEW
09:35 63.8 °F 55.3 °F 30.44 in East 5.0 mph 5.0 mph 74% 0.00 in FEW
09:45 64.4 °F 55.9 °F 30.45 in East 5.0 mph 5.0 mph 74% 0.00 in FEW
09:55 65.0 °F 56.5 °F 30.45 in East 5.0 mph 5.0 mph 74% 0.00 in FEW
10:00 65.4 °F 56.5 °F 30.44 in East 5.0 mph 5.0 mph 73% 0.00 in FEW
10:05 65.6 °F 56.7 °F 30.44 in East 5.0 mph 5.0 mph 73% 0.00 in FEW
10:10 65.8 °F 56.9 °F 30.44 in East 5.0 mph 5.0 mph 73% 0.00 in FEW
10:15 66.0 °F 56.7 °F 30.44 in ENE 6.0 mph 6.0 mph 72% 0.00 in FEW
10:20 66.3 °F 57.4 °F 30.44 in ENE 6.0 mph 6.0 mph 73% 0.00 in FEW
10:25 66.7 °F 57.4 °F 30.45 in ENE 6.0 mph 6.0 mph 72% 0.00 in FEW
10:30 67.0 °F 57.3 °F 30.45 in ENE 6.0 mph 6.0 mph 71% 0.00 in FEW
10:35 67.3 °F 57.2 °F 30.45 in ENE 6.0 mph 6.0 mph 70% 0.00 in FEW
10:40 67.5 °F 56.9 °F 30.45 in ENE 6.0 mph 6.0 mph 69% 0.00 in FEW
10:45 67.9 °F 57.3 °F 30.45 in ENE 6.0 mph 6.0 mph 69% 0.00 in FEW
10:50 68.3 °F 57.4 °F 30.45 in ENE 6.0 mph 6.0 mph 68% 0.00 in FEW
10:55 68.9 °F 57.1 °F 30.45 in ENE 6.0 mph 6.0 mph 66% 0.00 in FEW
11:00 69.5 °F 58.0 °F 30.44 in ENE 6.0 mph 6.0 mph 67% 0.00 in FEW
11:05 70.5 °F 58.6 °F 30.44 in ENE 6.0 mph 6.0 mph 66% 0.00 in FEW
11:10 71.0 °F 57.8 °F 30.44 in ENE 6.0 mph 6.0 mph 63% 0.00 in FEW
11:15 71.1 °F 57.9 °F 30.44 in ENE 5.0 mph 6.0 mph 63% 0.00 in FEW
11:20 71.6 °F 57.5 °F 30.44 in East 5.0 mph 5.0 mph 61% 0.00 in FEW
11:25 71.8 °F 57.6 °F 30.44 in East 5.0 mph 5.0 mph 61% 0.00 in FEW
11:30 71.9 °F 57.7 °F 30.44 in East 5.0 mph 5.0 mph 61% 0.00 in FEW
11:35 71.7 °F 58.0 °F 30.44 in East 5.0 mph 5.0 mph 62% 0.00 in FEW
11:40 72.0 °F 57.4 °F 30.44 in East 5.0 mph 8.0 mph 60% 0.00 in FEW
11:45 72.5 °F 58.2 °F 30.44 in East 5.0 mph 5.0 mph 61% 0.00 in FEW
11:50 73.1 °F 57.9 °F 30.44 in East 5.0 mph 5.0 mph 59% 0.00 in FEW
11:55 73.5 °F 58.3 °F 30.43 in East 5.0 mph 5.0 mph 59% 0.00 in FEW
12:00 74.1 °F 58.4 °F 30.43 in East 5.0 mph 5.0 mph 58% 0.00 in FEW
12:05 74.5 °F 58.2 °F 30.43 in East 5.0 mph 5.0 mph 57% 0.00 in FEW
12:10 74.5 °F 58.3 °F 30.43 in East 5.0 mph 5.0 mph 57% 0.00 in FEW
12:15 74.6 °F 58.4 °F 30.43 in East 13.0 mph 23.0 mph 57% 0.00 in FEW
12:20 74.6 °F 58.9 °F 30.43 in East 13.0 mph 23.0 mph 58% 0.00 in FEW
12:25 74.7 °F 58.5 °F 30.43 in East 13.0 mph 23.0 mph 57% 0.00 in FEW
12:30 74.9 °F 57.6 °F 30.43 in East 13.0 mph 23.0 mph 55% 0.00 in FEW
12:35 74.6 °F 57.4 °F 30.43 in East 13.0 mph 23.0 mph 55% 0.00 in FEW
12:40 74.5 °F 57.8 °F 30.42 in East 13.0 mph 23.0 mph 56% 0.00 in FEW
12:45 74.8 °F 57.6 °F 30.42 in East 13.0 mph 23.0 mph 55% 0.00 in FEW
12:50 74.9 °F 57.6 °F 30.42 in East 13.0 mph 23.0 mph 55% 0.00 in FEW
12:55 74.9 °F 57.1 °F 30.42 in East 13.0 mph 23.0 mph 54% 0.00 in FEW
13:00 75.0 °F 56.7 °F 30.42 in East 13.0 mph 23.0 mph 53% 0.00 in FEW
13:05 75.2 °F 56.9 °F 30.41 in East 13.0 mph 23.0 mph 53% 0.00 in FEW
13:10 75.3 °F 57.0 °F 30.41 in East 13.0 mph 23.0 mph 53% 0.00 in FEW
13:15 74.9 °F 56.6 °F 30.41 in East 9.0 mph 23.0 mph 53% 0.00 in SCT
13:20 75.1 °F 57.8 °F 30.41 in East 9.0 mph 9.0 mph 55% 0.00 in SCT
13:30 75.3 °F 57.5 °F 30.40 in East 9.0 mph 9.0 mph 54% 0.00 in SCT
13:35 75.2 °F 57.4 °F 30.40 in East 9.0 mph 9.0 mph 54% 0.00 in SCT
13:40 75.5 °F 56.6 °F 30.39 in East 9.0 mph 9.0 mph 52% 0.00 in SCT
13:50 76.5 °F 57.0 °F 30.39 in East 9.0 mph 9.0 mph 51% 0.00 in SCT
13:55 76.2 °F 56.2 °F 30.38 in East 9.0 mph 9.0 mph 50% 0.00 in SCT
14:05 77.3 °F 57.2 °F 30.38 in East 9.0 mph 9.0 mph 50% 0.00 in SCT
14:10 77.8 °F 56.0 °F 30.37 in East 9.0 mph 9.0 mph 47% 0.00 in SCT
14:15 78.0 °F 56.7 °F 30.37 in East 9.0 mph 9.0 mph 48% 0.00 in SCT
14:20 78.1 °F 56.8 °F 30.36 in East 9.0 mph 9.0 mph 48% 0.00 in SCT
14:25 78.4 °F 56.5 °F 30.36 in East 9.0 mph 9.0 mph 47% 0.00 in SCT
14:30 78.5 °F 57.2 °F 30.36 in East 9.0 mph 9.0 mph 48% 0.00 in SCT
14:35 77.9 °F 56.0 °F 30.36 in East 9.0 mph 9.0 mph 47% 0.00 in SCT
14:40 77.4 °F 56.2 °F 30.35 in East 9.0 mph 9.0 mph 48% 0.00 in SCT
14:45 77.6 °F 56.9 °F 30.35 in East 9.0 mph 9.0 mph 49% 0.00 in SCT
14:50 78.2 °F 56.9 °F 30.35 in East 9.0 mph 9.0 mph 48% 0.00 in SCT
14:55 78.6 °F 57.3 °F 30.34 in East 9.0 mph 9.0 mph 48% 0.00 in SCT
15:00 78.6 °F 57.3 °F 30.34 in East 9.0 mph 9.0 mph 48% 0.00 in SCT
15:10 78.0 °F 56.7 °F 30.33 in East 9.0 mph 9.0 mph 48% 0.00 in SCT
15:15 77.8 °F 56.0 °F 30.33 in East 8.0 mph 9.0 mph 47% 0.00 in SCT
15:20 77.8 °F 56.5 °F 30.33 in East 8.0 mph 8.0 mph 48% 0.00 in SCT
15:25 77.6 °F 55.7 °F 30.33 in East 8.0 mph 8.0 mph 47% 0.00 in SCT
15:30 77.3 °F 56.6 °F 30.33 in East 8.0 mph 8.0 mph 49% 0.00 in SCT
15:35 77.2 °F 56.5 °F 30.33 in East 8.0 mph 8.0 mph 49% 0.00 in SCT
15:40 77.0 °F 55.8 °F 30.32 in East 8.0 mph 8.0 mph 48% 0.00 in SCT
15:45 76.8 °F 56.2 °F 30.32 in East 8.0 mph 8.0 mph 49% 0.00 in SCT
15:50 76.6 °F 56.0 °F 30.32 in East 8.0 mph 8.0 mph 49% 0.00 in SCT
15:55 76.7 °F 56.1 °F 30.32 in East 8.0 mph 8.0 mph 49% 0.00 in SCT
16:00 76.8 °F 56.7 °F 30.32 in East 8.0 mph 8.0 mph 50% 0.00 in SCT
16:05 76.8 °F 56.8 °F 30.31 in East 8.0 mph 8.0 mph 50% 0.00 in SCT
16:10 76.8 °F 55.7 °F 30.31 in East 8.0 mph 8.0 mph 48% 0.00 in SCT
16:15 77.1 °F 55.9 °F 30.31 in East 8.0 mph 8.0 mph 48% 0.00 in SCT
16:20 77.3 °F 57.2 °F 30.31 in East 8.0 mph 8.0 mph 50% 0.00 in SCT
16:25 77.4 °F 56.2 °F 30.31 in East 8.0 mph 8.0 mph 48% 0.00 in SCT
16:30 77.4 °F 55.6 °F 30.31 in East 8.0 mph 8.0 mph 47% 0.00 in SCT
16:35 77.4 °F 56.2 °F 30.31 in East 8.0 mph 8.0 mph 48% 0.00 in SCT
16:40 77.2 °F 55.4 °F 30.31 in East 8.0 mph 8.0 mph 47% 0.00 in SCT
16:45 77.0 °F 56.3 °F 30.31 in East 8.0 mph 8.0 mph 49% 0.00 in SCT
16:50 76.8 °F 56.2 °F 30.31 in East 8.0 mph 8.0 mph 49% 0.00 in SCT
17:00 76.6 °F 56.0 °F 30.31 in East 8.0 mph 8.0 mph 49% 0.00 in SCT
17:05 76.5 °F 56.5 °F 30.31 in East 8.0 mph 8.0 mph 50% 0.00 in SCT
17:10 76.5 °F 57.6 °F 30.31 in East 8.0 mph 8.0 mph 52% 0.00 in SCT
17:15 76.4 °F 56.4 °F 30.31 in East 8.0 mph 8.0 mph 50% 0.00 in FEW
17:20 76.2 °F 56.2 °F 30.31 in East 8.0 mph 8.0 mph 50% 0.00 in FEW
17:25 76.1 °F 56.1 °F 30.31 in East 8.0 mph 8.0 mph 50% 0.00 in FEW
17:30 76.0 °F 56.6 °F 30.31 in East 8.0 mph 8.0 mph 51% 0.00 in FEW
17:40 75.6 °F 57.2 °F 30.31 in East 8.0 mph 8.0 mph 53% 0.00 in FEW
17:50 75.3 °F 56.9 °F 30.31 in East 8.0 mph 8.0 mph 53% 0.00 in FEW
17:55 75.1 °F 57.9 °F 30.31 in East 8.0 mph 8.0 mph 55% 0.00 in FEW
18:00 74.9 °F 58.2 °F 30.30 in East 8.0 mph 8.0 mph 56% 0.00 in FEW
18:05 74.5 °F 58.3 °F 30.30 in East 8.0 mph 8.0 mph 57% 0.00 in FEW
18:10 74.1 °F 58.4 °F 30.30 in East 8.0 mph 8.0 mph 58% 0.00 in FEW
18:20 73.6 °F 57.4 °F 30.31 in ENE 5.0 mph 5.0 mph 57% 0.00 in FEW
18:25 73.3 °F 58.1 °F 30.31 in ENE 5.0 mph 5.0 mph 59% 0.00 in FEW
18:30 73.0 °F 58.3 °F 30.31 in ENE 5.0 mph 5.0 mph 60% 0.00 in FEW
18:35 72.7 °F 58.0 °F 30.30 in ENE 5.0 mph 5.0 mph 60% 0.00 in FEW
18:40 72.5 °F 57.8 °F 30.31 in ENE 5.0 mph 5.0 mph 60% 0.00 in FEW
18:45 72.3 °F 58.1 °F 30.31 in ENE 5.0 mph 5.0 mph 61% 0.00 in FEW
18:50 72.0 °F 57.8 °F 30.31 in ENE 5.0 mph 5.0 mph 61% 0.00 in FEW
18:55 71.7 °F 57.5 °F 30.31 in ENE 5.0 mph 5.0 mph 61% 0.00 in FEW
19:00 71.4 °F 57.7 °F 30.31 in ENE 5.0 mph 5.0 mph 62% 0.00 in FEW
19:05 71.2 °F 58.0 °F 30.31 in ENE 5.0 mph 5.0 mph 63% 0.00 in FEW
19:10 71.0 °F 58.2 °F 30.30 in ENE 5.0 mph 5.0 mph 64% 0.00 in FEW
19:15 70.8 °F 58.0 °F 30.30 in ENE 3.0 mph 5.0 mph 64% 0.00 in CLR
19:20 70.3 °F 58.0 °F 30.30 in ENE 3.0 mph 3.0 mph 65% 0.00 in CLR
19:25 69.8 °F 58.3 °F 30.30 in ENE 3.0 mph 3.0 mph 67% 0.00 in CLR
19:30 69.4 °F 58.0 °F 30.30 in ENE 3.0 mph 3.0 mph 67% 0.00 in CLR
19:35 69.2 °F 57.8 °F 30.31 in ENE 3.0 mph 3.0 mph 67% 0.00 in CLR
19:40 69.0 °F 57.6 °F 30.31 in ENE 3.0 mph 3.0 mph 67% 0.00 in CLR
19:45 68.8 °F 57.8 °F 30.31 in ENE 3.0 mph 3.0 mph 68% 0.00 in CLR
19:50 68.6 °F 57.6 °F 30.31 in ENE 3.0 mph 3.0 mph 68% 0.00 in CLR
19:55 68.4 °F 57.4 °F 30.31 in ENE 3.0 mph 3.0 mph 68% 0.00 in CLR
20:00 68.2 °F 57.6 °F 30.31 in ENE 3.0 mph 3.0 mph 69% 0.00 in CLR
20:05 67.8 °F 58.1 °F 30.31 in ENE 3.0 mph 3.0 mph 71% 0.00 in CLR
20:10 67.5 °F 57.8 °F 30.31 in ENE 3.0 mph 3.0 mph 71% 0.00 in CLR
20:15 67.2 °F 57.8 °F 30.31 in ENE 3.0 mph 3.0 mph 72% 0.00 in FEW
20:20 66.8 °F 57.8 °F 30.31 in ENE 3.0 mph 3.0 mph 73% 0.00 in FEW
20:25 66.3 °F 57.8 °F 30.31 in ENE 3.0 mph 3.0 mph 74% 0.00 in FEW
20:30 66.0 °F 57.5 °F 30.31 in ENE 3.0 mph 3.0 mph 74% 0.00 in FEW
20:35 65.8 °F 57.2 °F 30.31 in ENE 3.0 mph 3.0 mph 74% 0.00 in FEW
20:40 65.5 °F 57.4 °F 30.31 in ENE 3.0 mph 3.0 mph 75% 0.00 in FEW
20:45 65.3 °F 57.2 °F 30.31 in ENE 3.0 mph 3.0 mph 75% 0.00 in FEW
20:50 65.2 °F 56.7 °F 30.31 in ENE 3.0 mph 3.0 mph 74% 0.00 in FEW
20:55 65.1 °F 57.0 °F 30.31 in ENE 3.0 mph 3.0 mph 75% 0.00 in FEW
21:00 65.0 °F 56.1 °F 30.31 in ENE 3.0 mph 3.0 mph 73% 0.00 in FEW
21:05 65.2 °F 56.3 °F 30.32 in ENE 3.0 mph 3.0 mph 73% 0.00 in FEW
21:10 65.1 °F 56.6 °F 30.32 in ENE 3.0 mph 3.0 mph 74% 0.00 in FEW
21:15 64.9 °F 57.2 °F 30.32 in NE 3.0 mph 3.0 mph 76% 0.00 in CLR
21:20 64.6 °F 57.2 °F 30.32 in NNE 3.0 mph 3.0 mph 77% 0.00 in CLR
21:25 64.4 °F 57.0 °F 30.32 in NNE 3.0 mph 3.0 mph 77% 0.00 in CLR
21:30 64.1 °F 56.7 °F 30.32 in NNE 3.0 mph 3.0 mph 77% 0.00 in CLR
21:35 63.8 °F 56.8 °F 30.32 in NNE 3.0 mph 3.0 mph 78% 0.00 in CLR
21:40 63.6 °F 56.6 °F 30.32 in NNE 3.0 mph 3.0 mph 78% 0.00 in CLR
21:45 63.4 °F 56.8 °F 30.32 in NNE 3.0 mph 3.0 mph 79% 0.00 in CLR
21:50 63.2 °F 56.9 °F 30.32 in NNE 3.0 mph 3.0 mph 80% 0.00 in CLR
21:55 62.9 °F 56.6 °F 30.32 in NNE 3.0 mph 3.0 mph 80% 0.00 in CLR
22:00 62.8 °F 56.9 °F 30.32 in NNE 3.0 mph 3.0 mph 81% 0.00 in CLR
22:05 62.5 °F 56.6 °F 30.32 in NNE 3.0 mph 3.0 mph 81% 0.00 in CLR
22:15 62.1 °F 56.6 °F 30.32 in NNE 3.0 mph 3.0 mph 82% 0.00 in CLR
22:20 62.0 °F 56.4 °F 30.32 in NNE 3.0 mph 3.0 mph 82% 0.00 in CLR
22:25 61.8 °F 56.2 °F 30.33 in NNE 3.0 mph 3.0 mph 82% 0.00 in CLR
22:35 61.6 °F 56.4 °F 30.32 in NNE 3.0 mph 3.0 mph 83% 0.00 in CLR
22:40 61.5 °F 56.0 °F 30.33 in NNE 3.0 mph 3.0 mph 82% 0.00 in CLR
22:45 61.5 °F 56.3 °F 30.33 in NNE 3.0 mph 3.0 mph 83% 0.00 in CLR
22:50 61.4 °F 56.2 °F 30.33 in NNE 3.0 mph 3.0 mph 83% 0.00 in CLR
22:55 61.3 °F 56.1 °F 30.33 in NNE 3.0 mph 3.0 mph 83% 0.00 in CLR
23:00 61.3 °F 56.1 °F 30.33 in NNE 3.0 mph 3.0 mph 83% 0.00 in CLR
23:05 61.2 °F 55.7 °F 30.33 in NNE 3.0 mph 3.0 mph 82% 0.00 in CLR
23:25 60.7 °F 55.5 °F 30.32 in NNW 3.0 mph 3.0 mph 83% 0.00 in CLR
23:35 60.4 °F 55.5 °F 30.33 in Calm     84% 0.00 in CLR
23:45 60.1 °F 55.2 °F 30.32 in Calm     84% 0.00 in CLR
23:50 60.0 °F 55.4 °F 30.32 in Calm     85% 0.00 in CLR
23:55 59.9 °F 55.4 °F 30.32 in Calm     85% 0.00 in CLR
Piedmont Bend
Compliments of Weather Underground - 4 mb